This demonstration page uses our WeatherBlox Daily Observations layout. Learn more.

Left ArrowRight Arrow

39.92423, -83.80882

Hourly Observations for September 5, 2015

Temp ( °F °C ) Dew Point ( °F °C ) Humidity (%) Winds ( mph kmh ) Pressure ( in mb ) Visibility ( mi km ) Precip ( " mm )
12:58 am 00:58 Cloudy 66 19.1 66 19 99 99 N 2 4 30.09 1019 10 16.0934 0 0
1:58 am 01:58 Clear 66 18.7 66 18.7 100 100 NE 2 4 30.09 1019 10 16.0934 0 0
2:18 am 02:18 Clear with Mist and Fog 63 17 63 17 100 100 E 5 7 30.09 1019 3 4.82802 0 0
2:28 am 02:28 Clear 64 18 64 18 100 100 E 5 7 30.06 1018 9 14.48406 0 0
2:38 am 02:38 Clear 64 18 64 18 100 100 E 3 6 30.06 1018 10 16.0934 0 0
2:58 am 02:58 Clear 64 17.7 64 17.7 100 100 WNW 3 6 30.09 1019 10 16.0934 0 0
3:28 am 03:28 Clear 63 17 63 17 100 100 W 3 6 30.09 1019 8 12.87472 0 0
3:48 am 03:48 Clear with Patchy Fog 63 17 63 17 100 100 S 2 4 30.09 1019 7 11.26538 0 0
3:58 am 03:58 Clear with Patchy Fog 63 17 63 17 100 100 NW 2 4 30.09 1019 7 11.26538 0 0
4:58 am 04:58 Clear with Patchy Fog 64 17.5 64 17.5 100 100 NNE 2 4 30.11 1020 7 11.26538 0 0
5:58 am 05:58 Mostly Clear with Patchy Fog 62 16.6 62 16.6 100 100 W 2 4 30.13 1020 7 11.26538 0 0
6:58 am 06:58 Partly Cloudy with Patchy Fog 63 17 63 17 100 100 N 2 4 30.15 1021 7 11.26538 0 0
7:58 am 07:58 Partly Cloudy with Patchy Fog 64 17.7 64 17.7 100 100 NNE 3 6 30.16 1021 7 11.26538 0 0
8:58 am 08:58 Mostly Sunny 67 19.5 65 18.3 93 93 E 2 4 30.16 1022 10 16.0934 0 0
9:58 am 09:58 Mostly Sunny 72 22.3 65 18.6 80 80 E 2 4 30.16 1022 10 16.0934 0 0
10:58 am 10:58 Mostly Sunny 78 25.4 67 19.7 71 71 E 1 2 30.17 1022 10 16.0934 0 0
11:58 am 11:58 Partly Cloudy 82 27.9 65 18.3 56 56 E 5 7 30.17 1022 10 16.0934 0 0
12:58 pm 12:58 Partly Cloudy 84 29 64 17.5 50 50 E 2 4 30.15 1021 10 16.0934 0 0
1:58 pm 13:58 Partly Cloudy 86 30.1 65 18.1 49 49 NE 5 7 30.14 1021 10 16.0934 0 0
2:58 pm 14:58 Mostly Sunny 87 30.3 65 18.2 48 48 VRB 2 4 30.13 1020 10 16.0934 0 0
3:58 pm 15:58 Mostly Sunny 87 30.8 64 17.6 45 45 NNE 2 4 30.11 1020 10 16.0934 0 0
4:58 pm 16:58 Sunny 88 30.9 63 17.2 44 44 NNE 3 6 30.1 1019 10 16.0934 0 0
5:58 pm 17:58 Mostly Sunny 87 30.8 62 16.4 42 42 N 2 4 30.09 1019 10 16.0934 0 0
6:58 pm 18:58 Mostly Sunny 86 29.8 68 20 56 56 WNW 9 15 30.09 1019 10 16.0934 0 0
7:58 pm 19:58 Partly Cloudy 81 27 67 19.7 64 64 NNW 2 4 30.09 1019 10 16.0934 0 0
8:58 pm 20:58 Clear 75 24 70 20.9 83 83 N 3 6 30.11 1020 10 16.0934 0 0.0254
9:58 pm 21:58 Clear 74 23.2 69 20.6 85 85 Calm 30.13 1020 10 16.0934 0 0
10:58 pm 22:58 Clear 70 21.3 68 20.2 93 93 W 2 4 30.13 1020 10 16.0934 0 0
11:58 pm 23:58 Clear 72 22 68 20.2 90 90 Calm 30.13 1020 10 16.0934 0 0

Powered by AerisWeather